Helicity
69 35 37 51 67 72 67 70 63 62 57 46 47 49 38 27 18 -23 20 30 9 7 1 -12 -20 -3 11 16 23 15 31 29 8 -1 3 12 22 45 66 71 75 67 63
102 71 78 71 68 63 63 61 64 67 71 61 54 44 32 15 2 -12 -2 30 12 9 10 15 6 3 6 13 21 18 24 27 21 15 6 5 26 81 82 71 78 87 84
87 72 82 67 65 64 60 52 52 56 63 66 60 57 50 34 19 9 -11 9 25 17 7 -1 5 12 3 -3 -7 -7 -5 19 34 6 22 32 50 55 58 117 120 116 115
63 84 75 46 43 41 38 46 61 62 64 61 60 54 49 54 58 41 33 12 36 37 38 32 20 22 24 13 -3 -11 -9 4 27 35 3 3 29 24 13 52 107 103 92
110 108 82 57 54 53 46 40 53 65 55 51 49 48 46 38 38 39 34 38 56 41 32 42 36 35 43 33 24 22 31 31 26 27 33 22 18 15 30 35 33 43 68
128 105 76 67 73 79 76 74 72 81 78 65 52 38 30 39 43 47 41 44 42 45 50 33 25 32 39 42 38 26 22 24 24 25 18 22 23 26 29 19 36 39 55
125 108 109 104 105 121 91 86 104 114 100 81 69 58 44 27 23 27 38 47 49 53 59 54 42 34 28 33 42 38 31 25 21 17 25 32 29 29 24 9 14 22 33
126 123 127 117 117 108 117 135 145 136 115 96 79 49 32 16 9 7 5 9 17 19 17 22 23 35 43 40 43 54 49 34 26 19 30 41 36 42 33 20 10 9 19
148 116 121 116 128 149 185 205 149 104 94 84 70 64 45 36 24 19 5 -1 -5 -1 9 9 4 7 16 33 50 73 62 54 48 45 36 38 54 57 40 36 36 23 12
118 131 162 158 151 176 229 175 116 75 53 50 39 31 23 19 14 5 8 9 4 -4 -9 -4 5 11 12 16 39 60 76 83 85 71 44 51 64 68 82 86 75 68 58
67 135 167 146 182 243 230 151 114 78 49 40 42 30 14 10 1 -6 3 7 5 5 1 1 7 3 8 18 30 43 60 71 85 83 67 53 39 66 66 76 81 97 102
79 119 179 215 247 318 214 130 98 78 63 49 40 27 9 -1 -8 -17 -14 1 9 12 8 12 22 31 40 30 24 31 49 63 71 79 79 72 75 50 70 73 73 90 104
83 172 285 337 321 263 159 106 72 47 22 2 -10 -6 -9 -9 -9 1 3 0 -15 -18 -1 20 31 38 53 57 59 48 47 48 56 70 82 91 89 72 84 82 71 91 100
192 241 265 228 190 163 105 85 73 41 15 -6 -19 -12 8 9 7 11 14 22 26 32 45 50 65 67 46 49 56 55 57 55 63 74 87 83 103 91 86 100 86 80 96
171 190 212 174 126 77 71 57 32 21 15 24 23 19 23 31 34 28 32 22 54 60 44 51 47 45 59 61 59 67 66 71 73 71 84 98 106 106 96 108 93 82 95
194 184 139 76 72 64 65 57 40 36 27 17 7 3 11 27 30 31 36 50 49 44 37 45 45 50 48 73 98 100 88 86 81 87 80 90 102 108 94 71 77 87 93
149 161 145 172 185 116 49 50 45 45 34 24 32 42 92 67 52 43 55 48 47 35 33 33 43 58 62 69 103 117 105 106 93 82 88 92 125 113 119 89 74 75 63
233 223 171 174 158 72 38 49 68 67 49 28 40 99 112 81 60 51 49 46 41 40 41 31 24 44 63 66 87 110 95 87 91 91 88 90 89 125 133 131 113 112 100
97 82 91 98 74 31 57 124 125 125 114 126 144 123 100 80 65 56 47 43 30 30 26 20 32 28 58 40 62 85 75 73 75 84 83 92 95 87 107 148 137 106 93
73 58 123 156 159 131 160 159 121 138 119 126 102 82 60 51 43 34 27 27 21 12 14 20 21 23 27 19 34 68 68 60 64 61 74 65 77 65 86 135 141 133 100
143 144 162 177 144 132 129 140 124 105 89 72 65 62 60 55 50 42 43 36 24 19 24 12 21 14 19 14 21 38 58 61 50 59 75 70 56 80 71 98 152 119 110
150 144 180 144 124 108 120 94 81 70 67 63 61 64 70 83 85 70 60 51 35 24 25 18 28 29 15 7 -2 23 35 59 66 53 54 55 55 86 88 110 91 88 95
95 102 122 118 83 84 92 81 74 79 75 74 73 84 89 105 109 103 88 86 63 50 33 28 26 45 33 22 -1 1 14 21 59 77 61 59 48 71 101 77 85 84 122
80 109 114 108 83 76 76 103 97 96 99 92 83 92 109 109 116 137 134 121 107 78 51 36 35 38 45 37 12 20 35 25 40 58 84 70 64 73 95 115 108 145 143
106 97 86 80 78 74 73 75 98 111 119 116 113 113 131 140 137 118 120 125 123 109 85 75 55 40 43 61 13 11 26 25 24 29 51 62 75 121 167 182 161 167 153
88 93 87 98 88 83 97 97 107 129 130 124 127 147 156 150 135 129 103 65 62 22 17 9 23 52 26 18 33 27 23 6 17 23 26 49 88 114 157 169 161 140 120
Wind_Speed
46 46 48 49 51 51 48 48 48 48 46 43 40 37 35 29 25 21 25 39 47 48 45 43 48 51 53 54 54 58 60 61 60 67 66 68 69 69 67 67 66 66 67
48 51 53 53 52 48 46 43 45 43 42 40 38 37 35 30 24 18 19 37 48 49 51 52 52 54 57 56 58 59 61 60 59 63 67 68 62 57 55 57 59 63 65
48 51 54 52 52 50 47 44 42 42 39 37 36 35 32 30 28 25 16 27 54 53 54 57 58 57 54 58 58 58 58 63 60 61 61 63 63 67 55 50 54 55 56
46 50 51 50 50 49 45 44 43 40 38 38 37 37 34 33 29 27 22 14 57 59 56 54 57 58 55 57 58 56 56 59 64 61 59 62 64 63 66 54 61 69 70
46 49 50 50 50 52 49 46 45 45 44 43 40 39 37 34 32 30 29 30 32 54 59 58 57 56 55 56 55 57 57 57 61 61 61 61 64 66 70 79 68 64 66
45 45 47 48 51 54 52 51 51 52 52 50 48 46 45 45 45 45 44 41 37 35 48 54 59 60 60 58 57 58 57 59 60 61 63 64 64 64 67 73 77 76 71
42 43 47 48 51 53 52 52 53 55 54 54 53 53 53 52 53 54 55 56 53 49 53 53 56 58 60 61 60 61 62 62 63 62 64 64 66 67 72 77 82 81 73
41 43 47 49 50 51 53 55 56 56 55 55 55 55 56 55 54 55 58 59 59 58 59 60 62 59 58 61 62 63 64 65 66 67 67 69 70 69 71 75 79 88 85
44 44 46 47 49 51 54 56 56 56 56 56 57 58 59 60 61 62 59 59 62 64 64 65 65 64 64 60 58 63 67 68 67 70 72 72 72 72 72 72 72 78 89
45 45 47 49 49 50 53 54 55 56 57 60 62 63 64 65 65 65 67 68 69 70 70 70 69 70 70 67 62 61 58 60 64 68 69 71 70 71 69 72 76 78 83
49 48 50 48 48 50 53 56 58 59 62 65 68 69 70 70 69 70 72 74 75 77 79 79 78 76 74 72 71 68 64 62 61 61 62 66 66 68 71 71 72 75 76
54 50 50 49 50 54 54 57 60 62 65 69 71 73 75 77 78 78 78 79 82 82 84 85 84 83 81 77 75 77 73 70 68 65 62 63 60 64 65 68 70 70 71
58 54 53 52 54 53 54 57 62 65 69 71 76 80 82 83 82 82 83 83 85 87 87 87 87 88 86 85 80 78 78 78 76 72 68 65 62 66 64 66 69 68 69
50 47 48 51 53 57 59 64 67 69 74 77 80 83 85 84 84 86 87 88 89 91 90 89 88 87 88 87 87 84 81 80 80 78 74 72 68 69 67 66 70 70 69
47 48 53 57 62 67 70 69 71 76 79 83 86 88 86 87 89 88 89 90 91 90 89 89 88 86 86 85 86 86 86 85 84 80 78 76 73 71 70 70 70 69 69
55 59 62 64 70 75 80 79 80 79 81 87 92 90 91 92 90 90 92 91 90 89 87 88 88 88 85 86 87 87 87 87 87 87 81 79 77 75 72 71 68 68 70
64 71 67 72 79 84 86 88 88 84 86 88 89 90 91 91 91 90 90 90 91 89 88 87 87 88 86 86 87 87 86 87 86 86 85 82 75 74 73 70 69 67 67
76 79 78 80 83 83 85 85 83 82 85 87 85 87 87 88 87 87 87 88 87 88 89 88 85 86 86 86 87 87 85 84 86 85 83 82 81 71 68 71 72 71 70
77 78 81 85 88 91 90 87 86 83 86 87 86 86 84 85 86 87 88 88 88 90 90 86 86 87 88 85 86 86 83 83 84 83 81 80 79 74 68 68 70 75 75
82 88 89 90 90 90 82 82 86 87 89 86 83 81 81 81 84 85 87 87 87 89 88 91 86 88 87 83 83 82 81 84 83 81 80 81 79 77 70 68 70 76 73
94 92 92 90 87 82 81 85 84 82 80 77 77 77 76 77 78 81 81 83 85 87 88 90 90 85 84 82 81 81 81 82 84 83 81 77 77 80 74 66 67 70 66
96 92 87 82 78 75 74 77 78 77 75 76 77 79 79 78 78 80 84 83 84 87 89 89 90 84 81 81 82 80 81 82 85 85 80 78 77 76 76 69 67 66 62
90 80 70 70 70 69 68 75 77 75 76 77 80 80 81 80 80 82 86 88 86 86 90 88 89 89 81 80 81 83 81 82 82 81 82 85 79 75 72 66 62 63 62
71 64 65 68 71 72 73 72 74 74 75 80 85 87 89 91 86 81 79 82 86 88 90 91 91 90 88 83 79 78 77 79 81 80 79 77 75 68 64 58 56 57 58
69 65 69 73 77 77 78 75 76 75 79 81 84 88 88 88 84 79 77 78 80 80 90 91 90 92 95 87 84 86 87 84 83 88 83 77 71 64 58 56 56 55 57
75 76 76 76 75 75 75 80 82 77 80 84 86 84 85 79 74 73 80 75 78 86 90 94 95 96 97 100 96 92 92 92 90 86 82 76 67 63 58 57 57 56 57
Wind_Direction
360 1 359 359 357 359 1 5 9 12 15 21 23 25 26 35 46 59 39 336 301 301 305 306 301 298 298 295 297 291 289 289 292 288 289 288 287 285 285 285 284 283 283
356 357 358 358 358 1 4 9 10 13 15 20 22 25 28 35 41 54 37 347 305 300 298 298 297 297 295 295 293 291 291 292 292 289 290 288 291 294 294 291 287 285 285
351 352 354 358 0 4 7 9 11 13 16 17 17 18 23 27 28 32 42 6 302 303 299 293 294 298 299 295 294 292 292 289 292 289 289 289 288 293 295 294 294 291 291
355 355 355 356 1 2 7 10 11 14 15 13 12 10 10 9 17 17 24 29 303 300 307 306 298 297 301 297 293 294 293 291 289 292 289 286 288 290 290 294 292 287 286
358 357 359 0 4 1 2 6 10 11 9 6 6 5 4 4 3 5 5 5 357 312 303 304 301 299 300 298 297 294 292 292 291 290 291 291 288 286 285 285 291 293 291
360 4 4 7 6 5 7 8 9 7 5 4 2 1 358 354 350 346 345 346 348 348 325 311 301 297 296 296 295 293 293 291 291 291 289 288 289 289 287 286 287 290 293
359 1 360 360 358 358 359 0 360 358 358 357 357 356 355 354 351 344 337 332 332 332 324 319 311 304 298 294 293 292 291 291 290 290 290 290 289 290 288 286 285 286 293
352 352 351 351 352 352 352 350 350 350 350 350 349 350 348 347 347 344 339 333 327 326 322 315 307 308 305 297 293 291 290 290 289 289 288 288 289 290 289 289 288 284 286
344 343 344 345 346 347 347 347 346 346 346 346 345 344 343 340 337 334 336 332 326 322 319 315 312 307 303 303 300 293 289 289 289 288 288 287 288 288 289 289 290 288 286
338 338 339 338 338 341 342 343 343 342 341 339 338 337 335 334 333 332 328 325 321 318 315 314 312 307 303 302 301 299 298 295 292 290 290 289 290 290 290 290 289 288 288
332 332 332 335 336 338 337 338 338 337 335 334 332 330 328 328 327 325 324 321 319 315 311 308 307 307 306 303 298 296 297 296 295 294 293 291 292 290 291 292 292 290 289
327 326 328 330 332 333 333 333 334 333 331 329 328 326 325 323 321 320 320 318 315 314 310 308 305 303 303 303 300 295 294 293 292 293 292 292 293 294 294 292 292 292 291
319 319 320 323 325 329 330 331 331 330 328 326 324 322 321 319 318 317 317 317 315 313 311 309 306 302 300 299 300 298 294 290 289 289 289 289 290 292 294 293 292 293 294
319 322 325 327 328 328 327 327 327 327 325 323 322 320 318 318 317 315 315 315 314 313 311 309 307 304 301 298 296 296 295 292 288 287 286 285 285 288 291 293 291 292 295
325 324 324 323 324 324 323 324 323 322 322 321 319 318 317 316 315 315 315 314 313 313 312 310 308 306 304 301 298 295 292 291 290 288 286 284 283 284 285 288 290 289 293
322 321 320 320 320 321 320 319 319 320 320 318 316 316 314 313 313 313 313 313 313 313 313 311 309 307 305 302 299 297 293 290 288 287 287 284 283 282 282 283 287 288 290
313 317 316 317 318 318 318 316 316 317 316 316 315 315 315 313 312 312 313 313 312 312 312 312 310 307 306 304 301 298 296 292 289 287 285 285 285 282 282 282 284 286 287
314 313 314 315 316 317 317 316 316 316 317 316 315 316 316 314 314 313 313 312 313 312 311 311 311 309 307 306 303 301 298 294 291 288 286 284 283 283 282 281 281 284 285
309 310 312 313 314 314 315 314 314 315 316 316 315 315 315 314 313 313 312 312 311 310 309 310 309 307 307 307 304 302 300 297 294 290 287 285 283 282 279 279 280 282 283
312 311 311 312 313 314 316 315 314 315 314 316 316 316 315 315 314 313 312 312 310 308 308 307 307 307 305 307 306 304 301 296 295 294 289 285 283 281 278 276 278 280 282
309 311 310 310 312 314 315 314 315 315 317 317 317 316 316 316 315 315 315 314 313 311 309 307 305 305 305 306 305 306 301 298 295 293 291 288 285 282 276 273 275 278 282
310 310 310 310 313 315 316 315 315 317 318 317 317 316 316 315 315 314 313 313 312 311 310 309 306 305 305 303 303 303 303 300 295 292 292 289 286 284 278 272 273 276 278
314 313 312 315 316 318 319 317 317 319 318 318 317 316 315 314 313 312 311 310 310 309 308 308 306 304 304 303 302 301 301 300 297 294 292 288 286 283 279 273 271 272 274
324 323 319 317 317 319 319 319 319 319 318 316 316 315 314 312 311 311 311 311 309 307 305 304 303 302 301 302 302 301 302 301 299 296 293 290 287 282 279 274 270 271 272
326 325 321 318 317 318 318 319 319 318 317 316 316 316 315 314 312 311 311 311 310 309 304 301 299 297 295 298 298 296 297 298 298 295 291 287 285 282 276 272 270 270 271
322 321 321 320 319 319 316 315 315 316 315 315 316 317 317 317 315 315 313 313 312 309 304 299 294 290 289 288 290 290 290 291 292 292 288 285 281 279 276 271 269 269 270